Miscellaneous Local Product
Issued by NWS North Platte, NE

Home | Current Version | Previous Version | Text Only | Print | Product List | Glossary On
Versions: 1 2 3 4 5 6 7 8 9 10 11 12 13 14 15 16 17 18 19 20 21 22 23 24 25 26 27 28 29 30 31 32 33 34 35 36 37 38 39 40 41 42 43 44 45 46 47 48 49 50
000
AXUS43 KLBF 010110
MISLBF


WESTERN AND NORTH CENTRAL NEBRASKA HOURLY WEATHER ROUNDUP
NATIONAL WEATHER SERVICE NORTH PLATTE NE
800 PM CDT TUE SEP 30 2014

***STATIONS NOT REPORTING VARIABLES SUCH AS SKY/WEATHER OR
PRESSURE ARE PROVIDED BY THE NEBRASKA DEPARTMENT OF
ROADS...RAWS...AND APRS NETWORKS...AND ARE NOT UNDER
NATIONAL WEATHER SERVICE QUALITY CONTROL***

...OBSERVATIONS IN AND NEAR THE EASTERN PANHANDLE OF NEBRASKA...

CITY           SKY/WX    TMP DP  RH WIND       PRES   REMARKS
PINE RIDGE     PTCLDY    57  49  74 CALM      29.68R
CHADRON        CLOUDY    62  47  57 CALM      29.68R
ALLIANCE       PTCLDY    53  42  66 SW9       29.73R
SIDNEY         CLOUDY    59  44  57 W6        29.79R
WHITECLAY        N/A     54  48  81 E6          N/A
RUSHVILLE        N/A     57  41  54 SW8         N/A
CRESCENT LAKE    N/A     62  39  43 W6          N/A
LISCO            N/A     62  42  48 W3          N/A
$$

...OBSERVATIONS IN NORTH CENTRAL NEBRASKA...

CITY           SKY/WX    TMP DP  RH WIND       PRES   REMARKS
VALENTINE      PTCLDY    60  45  57 SW6       29.67R
THEDFORD       CLOUDY    66  45  47 SW6       29.71S
AINSWORTH      PTCLDY    62  46  56 SW6       29.69R
O`NEILL        PTCLDY    68  49  50 SE5       29.69R
ORD            MOCLDY    64  49  57 S7        29.69R
BROKEN BOW     PTCLDY    63  47  55 CALM      29.71R
SPRINGVIEW       N/A     64  50  60 CALM        N/A
ROSE             N/A     73  48  40 CALM        N/A
NEWPORT          N/A     59  48  67 S5          N/A
SARGENT          N/A     70  46  41 CALM        N/A
COMSTOCK         N/A     66  52  61 S9          N/A
CHAMBERS         N/A     67  56  67 MISG        N/A
EWING            N/A     66  61  85 CALM        N/A
$$

...OBSERVATIONS IN SOUTHWEST NEBRASKA AND FAR NORTHEAST COLORADO...

CITY           SKY/WX    TMP DP  RH WIND       PRES   REMARKS
WRAY           FAIR      65  44  46 CALM      29.76S
HOLYOKE        FAIR      61  50  67 SE6       29.76S
IMPERIAL       MOCLDY    62  46  55 S5        29.74S
OGALLALA       CLOUDY    63  48  58 NW8       29.73S
NORTH PLATTE   MOCLDY    65  47  52 S5        29.72R
MCCOOK         PTCLDY    67  46  47 CALM      29.72S
LEXINGTON      CLEAR     64  49  57 S6        29.71S
SUTHERLAND       N/A     71  44  37 S8          N/A
BRADY            N/A     66  48  52 CALM        N/A
GOTHENBURG       N/A     73  41  32 S3          N/A
CALLAWAY         N/A     70  48  45 S7          N/A
$$

...SOME WEATHER OBSERVATIONS FROM AROUND THE REGION...

CITY           SKY/WX    TMP DP  RH WIND       PRES   REMARKS
DENVER         CLOUDY    60  39  45 N5        29.84R
LARAMIE        CLOUDY    46  36  68 SW12      29.90R
CHEYENNE       CLOUDY    54  36  50 W18       29.86R
SCOTTSBLUFF    MOCLDY    59  43  55 W7        29.75R
RAPID CITY     MOCLDY    60  43  53 W10       29.64R
PIERRE         PTCLDY    63  51  65 W16G26    29.55R
WINNER         FAIR      64  47  53 W9        29.64R
SIOUX FALLS    CLOUDY    66  61  84 S23G29    29.72R
OMAHA          TSTM      66  63  90 SE13      29.79F FOG
GRAND ISLAND   MOCLDY    65  61  87 SE7       29.72S
KANSAS CITY    PTCLDY    72  58  61 SE7       29.79S
WICHITA        MOCLDY    78  60  53 SE13      29.70S
HAYS           CLEAR     70  61  73 NE8       29.68R
LIBERAL        CLEAR     68  41  37 NW8       29.73S
GOODLAND       PTCLDY    62  46  55 S8        29.77S
$$



USA.gov is the U.S. government's official web portal to all federal, state and local government web resources and services.